Preview of NWS' New Version of Forecast
This preview is not operational and should not be used for support decisions.

Regional Weather Roundup (RWR)

Issued by National Weather Service (NWS)

                            
000
ASUS44 KMEG 210800
RWRTN 
TENNESSEE HOURLY STATE WEATHER ROUNDUP
NATIONAL WEATHER SERVICE MEMPHIS TN
300 AM CDT SAT SEP 21 2019

TNZ002-004-019-021-049-052-054-088>092-210900-
WEST TENNESSEE
  
CITY           SKY/WX    TMP DP  RH WIND       PRES   REMARKS
MEMPHIS INTL   FAIR      71  64  78 S6        30.15S                  
NWS MEMPHIS      N/A     71 N/A N/A MISG        N/A                   
JACKSON        FAIR      65  62  90 S3        30.19R                  
DYERSBURG      FAIR      69  64  84 CALM      30.18R                  
$$

TNZ008-025-027-028-033-062-065-066-210900-
NORTH MIDDLE TENNESSEE
  
CITY           SKY/WX    TMP DP  RH WIND       PRES   REMARKS
NASHVILLE      FAIR      71  57  61 S5        30.23S                  
CLARKSVILLE    FAIR      66  63  90 CALM      30.21R                  
SMYRNA         FAIR      66  60  81 SE5       30.24S                  
CROSSVILLE     FAIR      64  55  72 CALM      30.31S                  
$$

TNZ061-075-076-078-094-096-097-210900-
SOUTH MIDDLE TENNESSEE
  
CITY           SKY/WX    TMP DP  RH WIND       PRES   REMARKS
$$

TNZ017-018-042-046-047-210900-
NORTHEAST TENNESSEE
  
CITY           SKY/WX    TMP DP  RH WIND       PRES   REMARKS
TRI CITIES     FAIR      59  58  96 CALM      30.30S                  
$$

TNZ012-013-036-069-073-074-210900-
CENTRAL EAST TENNESSEE
  
CITY           SKY/WX    TMP DP  RH WIND       PRES   REMARKS
KNOXVILLE      FAIR      69  59  70 CALM      30.26                   
OAK RIDGE      FAIR      67  61  81 CALM      30.29S                  
$$

TNZ083-085-099-210900-
SOUTHEAST TENNESSEE
  
CITY           SKY/WX    TMP DP  RH WIND       PRES   REMARKS
CHATTANOOGA    FAIR      66  60  81 CALM      30.27S                  
$$

SKY/WX REPORTED AS FAIR MEANS FEW OR NO CLOUDS BELOW
12 THOUSAND FEET.